When you browse on this site, cookies collect data to enhance your experience and personalize the content and advertising you see.
Visit our Privacy Policy to learn more. By continuing to use the site, you agree to this use of cookies and data.
  • In Latvia
  • List of Countries
  • For 7 days
  • Water Temperature
  • Satellite Maps
  • Weather Map
  • Weather Widgets
  • user-avatar
    Login

    Hourly Weather Freienbach

    Today, 18 July, Thursday

    Time Temperature Precipitation Wind Pressure Humidity
    00:00 +18°C° 0 mm 1 mps 720 mmHg 77%
    01:00 +18°C° 0 mm 1 mps 720 mmHg 77%
    02:00 +18°C° 0 mm 1 mps 720 mmHg 77%
    03:00 +16°C° 0 mm 1 mps 720 mmHg 77%
    04:00 +16°C° 0 mm 1 mps 720 mmHg 78%
    05:00 +18°C° 0 mm 1 mps 720 mmHg 76%
    06:00 +19°C° 0 mm 1 mps 720 mmHg 74%
    07:00 +20°C° 0 mm 1 mps 721 mmHg 73%
    08:00 +22°C° 0 mm 1 mps 721 mmHg 65%
    09:00 +24°C° 0 mm 2 mps 721 mmHg 57%
    10:00 +25°C° 0 mm 2 mps 721 mmHg 48%
    11:00 +26°C° 0 mm 2 mps 721 mmHg 46%
    12:00 +27°C° 0 mm 2 mps 721 mmHg 43%
    13:00 +28°C° 0 mm 2 mps 721 mmHg 40%
    14:00 +27°C° 0 mm 2 mps 721 mmHg 42%
    15:00 +27°C° 0 mm 2 mps 721 mmHg 43%
    16:00 +27°C° 0 mm 2 mps 721 mmHg 45%
    17:00 +26°C° 0 mm 1 mps 721 mmHg 54%
    18:00 +24°C° 0 mm 1 mps 721 mmHg 62%
    19:00 +21°C° 0 mm 0 mps 721 mmHg 71%
    20:00 +22°C° 0 mm 1 mps 722 mmHg 73%
    21:00 +20°C° 0 mm 1 mps 722 mmHg 74%
    22:00 +19°C° 0 mm 1 mps 722 mmHg 75%
    23:00 +18°C° 0 mm 1 mps 722 mmHg 76%

    Tomorrow, 19 July, Friday

    Time Temperature Precipitation Wind Pressure Humidity
    00:00 +18°C° 0 mm 1 mps 722 mmHg 76%
    01:00 +18°C° 0 mm 1 mps 722 mmHg 76%
    02:00 +18°C° 0 mm 1 mps 722 mmHg 77%
    03:00 +16°C° 0 mm 1 mps 722 mmHg 78%
    04:00 +16°C° 0 mm 1 mps 722 mmHg 79%
    05:00 +16°C° 0 mm 0 mps 723 mmHg 77%
    06:00 +17°C° 0 mm 0 mps 723 mmHg 76%
    07:00 +19°C° 0 mm 0 mps 723 mmHg 74%
    08:00 +20°C° 0 mm 0 mps 723 mmHg 69%
    09:00 +24°C° 0 mm 1 mps 723 mmHg 63%
    10:00 +26°C° 0 mm 1 mps 723 mmHg 57%
    11:00 +27°C° 0.1 mm 1 mps 723 mmHg 55%
    12:00 +28°C° 0.1 mm 1 mps 723 mmHg 54%
    13:00 +28°C° 0.1 mm 1 mps 723 mmHg 52%
    14:00 +28°C° 0.2 mm 1 mps 723 mmHg 52%
    15:00 +28°C° 0.2 mm 1 mps 723 mmHg 52%
    16:00 +28°C° 0.2 mm 1 mps 723 mmHg 53%
    17:00 +27°C° 0.2 mm 1 mps 723 mmHg 61%
    18:00 +26°C° 0.2 mm 1 mps 723 mmHg 69%
    19:00 +25°C° 0.2 mm 1 mps 723 mmHg 77%
    20:00 +23°C° 0 mm 1 mps 723 mmHg 81%
    21:00 +21°C° 0 mm 1 mps 723 mmHg 84%
    22:00 +19°C° 0 mm 1 mps 723 mmHg 88%
    23:00 +19°C° 0 mm 1 mps 723 mmHg 89%

    Day after tomorrow, 20 July, Saturday

    Time Temperature Precipitation Wind Pressure Humidity
    00:00 +19°C° 0 mm 1 mps 723 mmHg 89%
    01:00 +19°C° 0 mm 1 mps 723 mmHg 90%
    02:00 +18°C° 0 mm 1 mps 723 mmHg 89%
    03:00 +18°C° 0 mm 1 mps 723 mmHg 89%
    04:00 +18°C° 0 mm 1 mps 723 mmHg 89%
    05:00 +19°C° 0 mm 1 mps 723 mmHg 86%
    06:00 +21°C° 0 mm 1 mps 723 mmHg 82%
    07:00 +22°C° 0 mm 1 mps 723 mmHg 79%
    08:00 +24°C° 0 mm 1 mps 724 mmHg 70%
    09:00 +27°C° 0 mm 1 mps 724 mmHg 60%
    10:00 +27°C° 0 mm 0 mps 724 mmHg 51%
    11:00 +30°C° 0.1 mm 1 mps 724 mmHg 48%
    12:00 +31°C° 0.1 mm 1 mps 724 mmHg 45%
    13:00 +31°C° 0.1 mm 2 mps 724 mmHg 43%
    14:00 +31°C° 0.4 mm 2 mps 724 mmHg 44%
    15:00 +31°C° 0.4 mm 2 mps 724 mmHg 46%
    16:00 +31°C° 0.4 mm 2 mps 724 mmHg 48%
    17:00 +29°C° 0.1 mm 2 mps 724 mmHg 56%
    18:00 +28°C° 0.1 mm 1 mps 724 mmHg 63%
    19:00 +26°C° 0.1 mm 1 mps 725 mmHg 71%
    20:00 +25°C° 0 mm 1 mps 725 mmHg 72%
    21:00 +24°C° 0 mm 1 mps 725 mmHg 72%
    22:00 +21°C° 0 mm 2 mps 725 mmHg 73%
    23:00 +22°C° 0 mm 1 mps 725 mmHg 72%

    21 July, Sunday

    Time Temperature Precipitation Wind Pressure Humidity
    00:00 +22°C° 0 mm 1 mps 725 mmHg 70%
    01:00 +22°C° 0 mm 1 mps 726 mmHg 69%
    02:00 +21°C° 0.2 mm 1 mps 726 mmHg 73%
    03:00 +20°C° 0.2 mm 1 mps 726 mmHg 77%
    04:00 +19°C° 0.2 mm 1 mps 726 mmHg 81%
    05:00 +20°C° 0.3 mm 1 mps 726 mmHg 81%
    06:00 +21°C° 0.3 mm 1 mps 726 mmHg 82%
    07:00 +20°C° 0.3 mm 0 mps 727 mmHg 83%
    08:00 +24°C° 0.2 mm 1 mps 727 mmHg 77%
    09:00 +26°C° 0.2 mm 1 mps 727 mmHg 72%
    10:00 +27°C° 0.2 mm 1 mps 727 mmHg 66%
    11:00 +28°C° 0.2 mm 1 mps 727 mmHg 63%
    12:00 +29°C° 0.2 mm 2 mps 727 mmHg 59%
    13:00 +30°C° 0.2 mm 2 mps 727 mmHg 55%
    14:00 +30°C° 0.2 mm 1 mps 727 mmHg 57%
    15:00 +30°C° 0.2 mm 1 mps 727 mmHg 58%
    16:00 +30°C° 0.2 mm 1 mps 727 mmHg 60%
    17:00 +28°C° 0.1 mm 1 mps 727 mmHg 67%
    18:00 +25°C° 0.1 mm 0 mps 727 mmHg 74%
    19:00 +24°C° 0.1 mm 0 mps 727 mmHg 81%
    20:00 +23°C° 0 mm 0 mps 728 mmHg 84%
    21:00 +23°C° 0 mm 1 mps 728 mmHg 86%
    22:00 +22°C° 0 mm 1 mps 728 mmHg 89%
    23:00 +21°C° 0.1 mm 1 mps 728 mmHg 89%

    22 July, Monday

    Time Temperature Precipitation Wind Pressure Humidity
    00:00 +21°C° 0.1 mm 1 mps 728 mmHg 89%
    01:00 +20°C° 0.1 mm 1 mps 728 mmHg 90%
    02:00 +20°C° 0 mm 1 mps 728 mmHg 89%
    03:00 +20°C° 0 mm 1 mps 727 mmHg 88%
    04:00 +20°C° 0 mm 1 mps 727 mmHg 87%
    05:00 +21°C° 0 mm 1 mps 728 mmHg 85%
    06:00 +20°C° 0 mm 0 mps 728 mmHg 83%
    07:00 +22°C° 0 mm 0 mps 728 mmHg 80%
    08:00 +24°C° 0 mm 0 mps 728 mmHg 72%
    09:00 +28°C° 0 mm 1 mps 728 mmHg 64%
    10:00 +30°C° 0 mm 1 mps 728 mmHg 56%
    11:00 +31°C° 0 mm 1 mps 728 mmHg 52%
    12:00 +32°C° 0 mm 1 mps 728 mmHg 48%
    13:00 +34°C° 0 mm 2 mps 728 mmHg 44%
    14:00 +35°C° 0 mm 2 mps 728 mmHg 44%
    15:00 +34°C° 0 mm 1 mps 728 mmHg 44%
    16:00 +34°C° 0 mm 1 mps 727 mmHg 44%
    17:00 +32°C° 0 mm 1 mps 727 mmHg 54%
    18:00 +30°C° 0 mm 1 mps 727 mmHg 63%
    19:00 +29°C° 0 mm 1 mps 727 mmHg 73%
    20:00 +27°C° 0 mm 1 mps 727 mmHg 77%
    21:00 +25°C° 0 mm 1 mps 727 mmHg 81%
    22:00 +23°C° 0 mm 1 mps 727 mmHg 85%
    23:00 +23°C° 0 mm 1 mps 727 mmHg 85%

    23 July, Tuesday

    Time Temperature Precipitation Wind Pressure Humidity
    00:00 +23°C° 0 mm 1 mps 727 mmHg 84%
    01:00 +22°C° 0 mm 1 mps 727 mmHg 84%
    02:00 +22°C° 0 mm 1 mps 727 mmHg 84%
    03:00 +22°C° 0 mm 1 mps 726 mmHg 83%
    04:00 +21°C° 0 mm 1 mps 726 mmHg 83%
    05:00 +22°C° 0 mm 1 mps 726 mmHg 80%
    06:00 +22°C° 0 mm 0 mps 726 mmHg 78%
    07:00 +23°C° 0 mm 0 mps 726 mmHg 76%
    08:00 +25°C° 0 mm 0 mps 726 mmHg 69%
    09:00 +29°C° 0 mm 1 mps 726 mmHg 63%
    10:00 +31°C° 0 mm 1 mps 726 mmHg 56%
    11:00 +32°C° 0 mm 1 mps 726 mmHg 52%
    12:00 +34°C° 0 mm 2 mps 726 mmHg 48%
    13:00 +35°C° 0 mm 2 mps 726 mmHg 44%
    14:00 +35°C° 0 mm 2 mps 726 mmHg 44%
    15:00 +35°C° 0 mm 2 mps 725 mmHg 45%
    16:00 +35°C° 0 mm 3 mps 725 mmHg 45%
    17:00 +32°C° 0 mm 2 mps 725 mmHg 55%
    18:00 +30°C° 0 mm 2 mps 725 mmHg 65%
    19:00 +29°C° 0 mm 2 mps 724 mmHg 75%
    20:00 +27°C° 0 mm 1 mps 724 mmHg 79%
    21:00 +25°C° 0 mm 1 mps 724 mmHg 84%
    22:00 +24°C° 0 mm 1 mps 725 mmHg 88%
    23:00 +23°C° 0 mm 1 mps 725 mmHg 88%
    Show more